Location: Bastelaar
(51.0950°N, 3.8602°E)
Time: 02:44:08
(UTC+00:00)

ARIANE 6 FM1 Upper Stage - Pass Details

Date: 30 January 2026
Orbit: 522 x 609 km, 62.0° (Epoch: 13 February)

Event Time Altitude Azimuth Distance (km) Brightness Sun altitude
Rises 19:13:01 0° 279° (W) 2,684 7.5 -25.3°
Reaches altitude 10° 19:15:41 10° 297° (WNW) 1,783 6.1 -25.7°
Enters shadow 19:18:37 20° 344° (NNW) 1,264 4.6 -26.1°
